BAW891 UGTB-EGLL

Flight info

Callsign BAW891
Flight time N/A
Altitude 38000
Route ZAGOT DCT BARUS DCT ROLIN UN644 SIN UW90 INB UL746 ODERO DCT OPT DCT SOKRU DCT VASIS DCT BEGLA DCT DEXIT DCT INBED DCT BOMBI DCT ADKUV DCT LENDO DCT SOGRI DCT DENUT L608 LOGAN
Aircraft A20N/M-SDGHIJ1LRWXY/SB1

Departure

Time 2026-04-16 07:37
Airport Tbilisi International Airport (UGTB)

Arrival

Time N/A
Airport London Heathrow Airport (EGLL)
Time Latitude Longitude Altitude Speed Heading
2026-04-16 06:57 41.66938 44.96283 1526 ft 0 kts 42°
2026-04-16 07:29 41.66930 44.96273 1526 ft 4 kts 43°
2026-04-16 07:29 41.66911 44.96248 1519 ft 4 kts 46°
2026-04-16 07:30 41.66893 44.96221 1521 ft 4 kts 53°
2026-04-16 07:30 41.66879 44.96191 1520 ft 3 kts 68°
2026-04-16 07:30 41.66876 44.96181 1520 ft 0 kts 69°
2026-04-16 07:32 41.66877 44.96185 1520 ft 1 kts 69°
2026-04-16 07:32 41.66876 44.96192 1519 ft 0 kts 102°
2026-04-16 07:33 41.66871 44.96206 1522 ft 5 kts 117°
2026-04-16 07:33 41.66829 44.96261 1519 ft 13 kts 128°
2026-04-16 07:33 41.66750 44.96374 1526 ft 20 kts 141°
2026-04-16 07:33 41.66669 44.96423 1526 ft 12 kts 186°
2026-04-16 07:34 41.66587 44.96392 1526 ft 13 kts 196°
2026-04-16 07:34 41.66498 44.96369 1527 ft 13 kts 192°
2026-04-16 07:34 41.66414 44.96343 1531 ft 10 kts 194°
2026-04-16 07:34 41.66371 44.96328 1532 ft 5 kts 195°
2026-04-16 07:35 41.66297 44.96304 1539 ft 18 kts 189°
2026-04-16 07:35 41.66134 44.96361 1525 ft 29 kts 145°
2026-04-16 07:35 41.66038 44.96474 1522 ft 14 kts 136°
2026-04-16 07:35 41.65960 44.96577 1524 ft 14 kts 139°
2026-04-16 07:36 41.65870 44.96579 1521 ft 15 kts 216°
2026-04-16 07:36 41.65859 44.96446 1523 ft 15 kts 309°
2026-04-16 07:36 41.65875 44.96424 1523 ft 0 kts 316°
2026-04-16 07:36 41.65928 44.96357 1523 ft 38 kts 316°
2026-04-16 07:37 41.66284 44.95886 1530 ft 102 kts 315°
2026-04-16 07:37 41.66922 44.95053 1541 ft 152 kts 315°
2026-04-16 07:37 41.67696 44.94055 2062 ft 154 kts 315°
2026-04-16 07:37 41.68511 44.93070 2660 ft 163 kts 319°
2026-04-16 07:38 41.69383 44.92093 3366 ft 164 kts 320°
2026-04-16 07:38 41.70266 44.91051 3817 ft 178 kts 316°
2026-04-16 07:38 41.71209 44.89837 4218 ft 197 kts 316°
2026-04-16 07:38 41.72242 44.88493 4602 ft 217 kts 316°
2026-04-16 07:39 41.73381 44.87032 4959 ft 238 kts 316°
2026-04-16 07:39 41.74611 44.85475 5550 ft 246 kts 317°
2026-04-16 07:39 41.75901 44.83854 6015 ft 264 kts 317°
2026-04-16 07:39 41.77266 44.82143 6698 ft 272 kts 317°
2026-04-16 07:40 41.78648 44.80402 7549 ft 273 kts 315°
2026-04-16 07:40 41.79694 44.78290 8361 ft 275 kts 289°
2026-04-16 07:40 41.79955 44.75756 9175 ft 277 kts 269°
2026-04-16 07:40 41.79903 44.73162 10056 ft 279 kts 268°
2026-04-16 07:41 41.79828 44.70505 10539 ft 295 kts 268°
2026-04-16 07:41 41.79751 44.67653 10778 ft 318 kts 268°
2026-04-16 07:41 41.79678 44.64624 11206 ft 330 kts 269°
2026-04-16 07:41 41.79608 44.61521 11904 ft 335 kts 269°
2026-04-16 07:42 41.79537 44.58381 12617 ft 340 kts 269°
2026-04-16 07:42 41.79467 44.55196 13324 ft 345 kts 269°
2026-04-16 07:42 41.79398 44.52025 13979 ft 350 kts 269°
2026-04-16 07:42 41.79326 44.48676 14648 ft 353 kts 269°
2026-04-16 07:43 41.79255 44.45420 15325 ft 356 kts 269°
2026-04-16 07:43 41.79180 44.42089 15984 ft 359 kts 270°
2026-04-16 07:43 41.79105 44.38730 16652 ft 362 kts 269°
2026-04-16 07:43 41.79025 44.35349 17309 ft 365 kts 269°
2026-04-16 07:44 41.78943 44.31938 17942 ft 368 kts 269°
2026-04-16 07:44 41.78858 44.28446 18544 ft 372 kts 269°
2026-04-16 07:44 41.78774 44.25029 19104 ft 373 kts 270°
2026-04-16 07:44 41.78688 44.21550 19687 ft 374 kts 270°
2026-04-16 07:45 41.78601 44.18060 20266 ft 376 kts 270°
2026-04-16 07:45 41.78530 44.14552 20838 ft 377 kts 272°
2026-04-16 07:45 41.78724 44.11056 21409 ft 377 kts 279°
2026-04-16 07:45 41.79076 44.07570 21955 ft 378 kts 279°
2026-04-16 07:46 41.79421 44.04069 22518 ft 379 kts 279°
2026-04-16 07:46 41.79763 44.00551 23034 ft 382 kts 279°
2026-04-16 07:46 41.80105 43.97011 23570 ft 384 kts 279°
2026-04-16 07:46 41.80445 43.93462 24055 ft 385 kts 279°
2026-04-16 07:47 41.80787 43.89891 24452 ft 388 kts 279°
2026-04-16 07:47 41.81130 43.86297 24870 ft 390 kts 279°
2026-04-16 07:47 41.81474 43.82681 25292 ft 392 kts 279°
2026-04-16 07:47 41.81819 43.79046 25691 ft 394 kts 279°
2026-04-16 07:48 41.82164 43.75392 26075 ft 397 kts 279°
2026-04-16 07:48 41.82510 43.71707 26434 ft 399 kts 279°
2026-04-16 07:48 41.82857 43.68010 26815 ft 401 kts 279°
2026-04-16 07:48 41.83205 43.64294 27179 ft 403 kts 279°
2026-04-16 07:49 41.83553 43.60560 27510 ft 405 kts 279°
2026-04-16 07:49 41.83901 43.56800 27844 ft 407 kts 279°
2026-04-16 07:49 41.84250 43.53026 28195 ft 409 kts 279°
2026-04-16 07:49 41.84601 43.49236 28516 ft 411 kts 279°
2026-04-16 07:50 41.84945 43.45485 28846 ft 413 kts 279°
2026-04-16 07:50 41.85296 43.41646 29157 ft 415 kts 279°
2026-04-16 07:50 41.85647 43.37796 29430 ft 417 kts 278°
2026-04-16 07:50 41.85998 43.33931 29716 ft 418 kts 278°
2026-04-16 07:51 41.86349 43.30049 30036 ft 420 kts 278°
2026-04-16 07:51 41.86699 43.26155 30305 ft 421 kts 278°
2026-04-16 07:51 41.87050 43.22240 30523 ft 424 kts 278°
2026-04-16 07:51 41.87401 43.18311 30785 ft 425 kts 278°
2026-04-16 07:52 41.87750 43.14377 31051 ft 426 kts 278°
2026-04-16 07:52 41.88101 43.10421 31309 ft 427 kts 278°
2026-04-16 07:52 41.88332 43.07799 31515 ft 427 kts 278°
2026-04-16 07:52 41.88680 43.03848 31858 ft 425 kts 278°
2026-04-16 07:53 41.89025 42.99915 32179 ft 424 kts 278°
2026-04-16 07:53 41.89368 42.95985 32504 ft 423 kts 278°
2026-04-16 07:53 41.89709 42.92067 32839 ft 422 kts 278°
2026-04-16 07:53 41.90048 42.88154 33175 ft 421 kts 278°
2026-04-16 07:54 41.90292 42.84240 33445 ft 422 kts 274°
2026-04-16 07:54 41.90250 42.80306 33762 ft 422 kts 269°
2026-04-16 07:54 41.90078 42.76380 34083 ft 420 kts 269°
2026-04-16 07:54 41.89922 42.72471 34341 ft 419 kts 269°
2026-04-16 07:55 41.89772 42.68566 34517 ft 419 kts 269°
2026-04-16 07:55 41.89621 42.64659 34729 ft 419 kts 269°
2026-04-16 07:55 41.89466 42.60746 34902 ft 420 kts 269°
2026-04-16 07:55 41.89309 42.56836 35079 ft 420 kts 269°
2026-04-16 07:56 41.89149 42.52919 35265 ft 420 kts 269°
2026-04-16 07:56 41.88988 42.49012 35437 ft 420 kts 269°
2026-04-16 07:56 41.88825 42.45099 35599 ft 420 kts 269°
2026-04-16 07:56 41.88661 42.41184 35767 ft 420 kts 269°
2026-04-16 07:57 41.88495 42.37268 35926 ft 420 kts 269°
2026-04-16 07:57 41.88328 42.33354 36095 ft 420 kts 269°
2026-04-16 07:57 41.88160 42.29443 36243 ft 420 kts 269°
2026-04-16 07:57 41.87990 42.25534 36396 ft 420 kts 269°
2026-04-16 07:58 41.87819 42.21622 36537 ft 420 kts 269°
2026-04-16 07:58 41.87647 42.17712 36687 ft 420 kts 269°
2026-04-16 07:58 41.87473 42.13795 36830 ft 420 kts 269°
2026-04-16 07:58 41.87299 42.09891 36966 ft 420 kts 269°
2026-04-16 07:59 41.87123 42.05984 37088 ft 420 kts 269°
2026-04-16 07:59 41.86945 42.02073 37220 ft 420 kts 269°
2026-04-16 07:59 41.86766 41.98164 37345 ft 420 kts 269°
2026-04-16 07:59 41.86587 41.94261 37470 ft 420 kts 269°
2026-04-16 08:00 41.86406 41.90354 37569 ft 420 kts 269°
2026-04-16 08:00 41.86226 41.86494 37672 ft 420 kts 268°
2026-04-16 08:00 41.86041 41.82580 37772 ft 420 kts 268°
2026-04-16 08:01 41.85669 41.74758 37958 ft 420 kts 268°
2026-04-16 08:01 41.85292 41.66932 38129 ft 420 kts 268°
2026-04-16 08:02 41.84909 41.59109 38224 ft 421 kts 268°
2026-04-16 08:02 41.84324 41.47381 38227 ft 420 kts 268°
2026-04-16 08:03 41.83929 41.39578 38228 ft 420 kts 268°
2026-04-16 08:03 41.83528 41.31769 38227 ft 420 kts 268°
2026-04-16 08:04 41.83122 41.23958 38229 ft 420 kts 268°
2026-04-16 08:04 41.82710 41.16152 38229 ft 420 kts 268°
2026-04-16 08:05 41.82293 41.08341 38227 ft 420 kts 268°
2026-04-16 08:05 41.81871 41.00545 38230 ft 420 kts 268°
2026-04-16 08:06 41.81444 40.92745 38230 ft 420 kts 268°
2026-04-16 08:06 41.81011 40.84941 38225 ft 419 kts 268°
2026-04-16 08:07 41.80574 40.77147 38232 ft 419 kts 268°
2026-04-16 08:07 41.80132 40.69361 38224 ft 419 kts 268°
2026-04-16 08:08 41.80080 40.61585 38224 ft 416 kts 275°
2026-04-16 08:08 41.80438 40.53842 38224 ft 416 kts 275°
2026-04-16 08:09 41.80778 40.46106 38229 ft 416 kts 275°
2026-04-16 08:09 41.81107 40.38417 38239 ft 416 kts 275°
2026-04-16 08:10 41.81432 40.30682 38222 ft 415 kts 275°
2026-04-16 08:10 41.81752 40.22957 38216 ft 415 kts 275°
2026-04-16 08:11 41.82066 40.15232 38213 ft 415 kts 275°
2026-04-16 08:11 41.82374 40.07516 38219 ft 415 kts 275°
2026-04-16 08:12 41.82677 39.99794 38234 ft 414 kts 275°
2026-04-16 08:12 41.82975 39.92075 38220 ft 414 kts 275°
2026-04-16 08:13 41.83267 39.84360 38223 ft 415 kts 275°
2026-04-16 08:13 41.83554 39.76639 38223 ft 415 kts 274°
2026-04-16 08:14 41.83836 39.68919 38220 ft 415 kts 274°
2026-04-16 08:14 41.84114 39.61181 38222 ft 415 kts 274°
2026-04-16 08:15 41.84386 39.53447 38230 ft 415 kts 274°
2026-04-16 08:15 41.84651 39.45712 38236 ft 415 kts 274°
2026-04-16 08:16 41.84913 39.37973 38225 ft 415 kts 274°
2026-04-16 08:16 41.85173 39.30221 38229 ft 416 kts 274°
2026-04-16 08:17 41.85425 39.22521 38234 ft 416 kts 274°
2026-04-16 08:17 41.85673 39.14770 38237 ft 416 kts 274°
2026-04-16 08:19 41.86611 38.83729 38231 ft 416 kts 274°
2026-04-16 08:20 41.86833 38.75967 38236 ft 416 kts 274°
2026-04-16 08:20 41.87049 38.68204 38233 ft 416 kts 274°
2026-04-16 08:21 41.87260 38.60436 38232 ft 416 kts 274°
2026-04-16 08:21 41.87466 38.52676 38229 ft 416 kts 274°
2026-04-16 08:22 41.87667 38.44916 38230 ft 416 kts 274°
2026-04-16 08:22 41.87862 38.37156 38231 ft 416 kts 274°
2026-04-16 08:23 41.88052 38.29395 38228 ft 416 kts 274°
2026-04-16 08:23 41.88237 38.21634 38224 ft 416 kts 274°
2026-04-16 08:24 41.88417 38.13874 38230 ft 416 kts 274°
2026-04-16 08:24 41.88591 38.06112 38224 ft 416 kts 273°
2026-04-16 08:25 41.88760 37.98360 38222 ft 416 kts 273°
2026-04-16 08:25 41.88924 37.90606 38225 ft 416 kts 273°
2026-04-16 08:26 41.89083 37.82839 38224 ft 416 kts 273°
2026-04-16 08:26 41.89235 37.75143 38228 ft 415 kts 273°
2026-04-16 08:27 41.89383 37.67390 38229 ft 415 kts 273°
2026-04-16 08:27 41.89526 37.59638 38227 ft 415 kts 273°
2026-04-16 08:28 41.89664 37.51894 38226 ft 415 kts 273°
2026-04-16 08:28 41.89796 37.44158 38228 ft 415 kts 273°
2026-04-16 08:29 41.89923 37.36411 38226 ft 415 kts 273°
2026-04-16 08:29 41.90045 37.28681 38227 ft 414 kts 273°
2026-04-16 08:30 41.90161 37.20939 38223 ft 414 kts 273°
2026-04-16 08:30 41.90273 37.13208 38220 ft 414 kts 272°
2026-04-16 08:31 41.90382 37.05481 38220 ft 414 kts 272°
2026-04-16 08:31 41.90733 36.97791 38220 ft 413 kts 277°
2026-04-16 08:32 41.91340 36.90135 38215 ft 412 kts 277°
2026-04-16 08:32 41.91894 36.82467 38215 ft 412 kts 276°
2026-04-16 08:33 41.92408 36.74849 38216 ft 412 kts 276°
2026-04-16 08:33 41.92918 36.67131 38216 ft 412 kts 276°
2026-04-16 08:34 41.93420 36.59463 38211 ft 412 kts 276°
2026-04-16 08:34 41.93917 36.51801 38216 ft 412 kts 276°
2026-04-16 08:35 41.94406 36.44176 38217 ft 412 kts 276°
2026-04-16 08:35 41.94897 36.36455 38214 ft 412 kts 276°
2026-04-16 08:36 41.95375 36.28837 38212 ft 412 kts 276°
2026-04-16 08:36 41.95852 36.21167 38213 ft 412 kts 276°
2026-04-16 08:37 41.96327 36.13448 38210 ft 412 kts 276°
2026-04-16 08:37 41.96715 36.07072 38209 ft 412 kts 276°
2026-04-16 08:38 41.97251 35.98163 38214 ft 412 kts 276°
2026-04-16 08:38 41.97707 35.90501 38205 ft 412 kts 276°
2026-04-16 08:39 41.98082 35.84118 38204 ft 411 kts 276°
2026-04-16 08:39 41.98528 35.76459 38205 ft 411 kts 276°
2026-04-16 08:40 41.98969 35.68806 38204 ft 411 kts 276°
2026-04-16 08:40 41.99405 35.61143 38202 ft 411 kts 276°
2026-04-16 08:41 41.99835 35.53486 38198 ft 410 kts 276°
2026-04-16 08:41 42.00260 35.45841 38204 ft 410 kts 276°
2026-04-16 08:42 42.00679 35.38196 38192 ft 410 kts 275°
2026-04-16 08:42 42.01093 35.30553 38187 ft 410 kts 275°
2026-04-16 08:43 42.01502 35.22920 38183 ft 409 kts 275°
2026-04-16 08:43 42.01906 35.15284 38174 ft 409 kts 275°
2026-04-16 08:44 42.02217 35.07643 38167 ft 410 kts 271°
2026-04-16 08:44 42.01913 34.99976 38164 ft 411 kts 268°
2026-04-16 08:45 42.01525 34.92311 38164 ft 411 kts 268°
2026-04-16 08:45 42.01138 34.84656 38161 ft 410 kts 268°
2026-04-16 08:46 42.00769 34.77006 38151 ft 410 kts 268°
2026-04-16 08:46 42.00403 34.69364 38143 ft 409 kts 268°
2026-04-16 08:47 42.00029 34.61740 38134 ft 409 kts 268°
2026-04-16 08:47 41.99648 34.54120 38137 ft 408 kts 268°
2026-04-16 08:48 41.99263 34.46511 38135 ft 408 kts 268°
2026-04-16 08:48 41.98873 34.38919 38128 ft 407 kts 268°
2026-04-16 08:49 41.98479 34.31336 38120 ft 406 kts 268°
2026-04-16 08:49 41.98080 34.23760 38124 ft 406 kts 268°
2026-04-16 08:50 41.97680 34.16252 38122 ft 405 kts 268°
2026-04-16 08:50 41.97271 34.08655 38125 ft 405 kts 268°
2026-04-16 08:51 41.96862 34.01164 38125 ft 405 kts 268°
2026-04-16 08:51 41.96445 33.93624 38125 ft 405 kts 268°
2026-04-16 08:52 41.96023 33.86087 38123 ft 404 kts 268°
2026-04-16 08:52 41.95596 33.78549 38117 ft 405 kts 268°
2026-04-16 08:53 41.95578 33.71208 38119 ft 401 kts 276°
2026-04-16 08:53 41.96406 33.64095 38117 ft 400 kts 284°
2026-04-16 08:54 41.97776 33.57034 38116 ft 399 kts 285°
2026-04-16 08:54 41.99166 33.49801 38123 ft 400 kts 284°
2026-04-16 08:55 42.00551 33.42565 38124 ft 400 kts 284°
2026-04-16 08:55 42.01934 33.35316 38123 ft 400 kts 284°
2026-04-16 08:56 42.03303 33.28114 38128 ft 400 kts 284°
2026-04-16 08:56 42.04677 33.20859 38131 ft 400 kts 284°
2026-04-16 08:57 42.06046 33.13607 38131 ft 400 kts 284°
2026-04-16 08:57 42.07413 33.06355 38133 ft 400 kts 284°
2026-04-16 08:58 42.08888 32.99138 38134 ft 400 kts 285°
2026-04-16 08:58 42.10384 32.91928 38136 ft 400 kts 285°
2026-04-16 08:59 42.11862 32.84706 38140 ft 400 kts 285°
2026-04-16 08:59 42.13327 32.77490 38137 ft 400 kts 285°
2026-04-16 09:00 42.14790 32.70254 38137 ft 400 kts 285°
2026-04-16 09:00 42.16249 32.63019 38142 ft 400 kts 285°
2026-04-16 09:01 42.18417 32.52201 38142 ft 400 kts 285°
2026-04-16 09:02 42.19861 32.44957 38147 ft 400 kts 284°
2026-04-16 09:02 42.21302 32.37703 38143 ft 400 kts 284°
2026-04-16 09:03 42.22739 32.30446 38141 ft 401 kts 284°
2026-04-16 09:03 42.24173 32.23173 38142 ft 401 kts 284°
2026-04-16 09:04 42.25600 32.15901 38149 ft 401 kts 284°
2026-04-16 09:04 42.27021 32.08609 38152 ft 401 kts 284°
2026-04-16 09:05 42.28447 32.01323 38154 ft 402 kts 284°
2026-04-16 09:05 42.29871 31.94025 38157 ft 402 kts 284°
2026-04-16 09:06 42.31290 31.86717 38157 ft 402 kts 284°
2026-04-16 09:06 42.32705 31.79404 38155 ft 402 kts 284°
2026-04-16 09:07 42.34116 31.72079 38161 ft 402 kts 284°
2026-04-16 09:07 42.35523 31.64752 38161 ft 403 kts 284°
2026-04-16 09:08 42.36915 31.57475 38156 ft 403 kts 284°
2026-04-16 09:08 42.38313 31.50138 38162 ft 403 kts 284°
2026-04-16 09:09 42.39706 31.42799 38158 ft 403 kts 284°
2026-04-16 09:09 42.41093 31.35460 38159 ft 403 kts 284°
2026-04-16 09:10 42.42476 31.28123 38160 ft 403 kts 284°
2026-04-16 09:10 42.43856 31.20768 38161 ft 403 kts 284°
2026-04-16 09:11 42.45230 31.13417 38163 ft 403 kts 284°
2026-04-16 09:11 42.46599 31.06062 38159 ft 403 kts 284°
2026-04-16 09:12 42.47962 30.98696 38163 ft 403 kts 284°
2026-04-16 09:12 42.49321 30.91329 38162 ft 403 kts 283°
2026-04-16 09:13 42.50677 30.83949 38165 ft 404 kts 283°
2026-04-16 09:13 42.52029 30.76560 38169 ft 404 kts 283°
2026-04-16 09:14 42.53377 30.69165 38171 ft 404 kts 283°
2026-04-16 09:14 42.54721 30.61762 38172 ft 405 kts 283°
2026-04-16 09:15 42.56053 30.54397 38174 ft 405 kts 283°
2026-04-16 09:15 42.57390 30.46975 38180 ft 405 kts 283°
2026-04-16 09:16 42.58732 30.39495 38182 ft 405 kts 283°
2026-04-16 09:16 42.60113 30.32132 38180 ft 406 kts 287°
2026-04-16 09:17 42.62317 30.25090 38176 ft 407 kts 297°
2026-04-16 09:17 42.65490 30.18652 38177 ft 409 kts 306°
2026-04-16 09:18 42.68970 30.12534 38179 ft 409 kts 305°
2026-04-16 09:18 42.72418 30.06435 38183 ft 409 kts 305°
2026-04-16 09:19 42.75846 30.00367 38185 ft 409 kts 305°
2026-04-16 09:19 42.79314 29.94216 38185 ft 409 kts 305°
2026-04-16 09:20 42.82778 29.88059 38186 ft 410 kts 305°
2026-04-16 09:20 42.86243 29.81888 38185 ft 410 kts 305°
2026-04-16 09:21 42.89701 29.75716 38188 ft 410 kts 305°
2026-04-16 09:21 42.93161 29.69527 38187 ft 410 kts 305°
2026-04-16 09:22 42.96619 29.63330 38193 ft 410 kts 305°
2026-04-16 09:22 43.00071 29.57129 38189 ft 410 kts 305°
2026-04-16 09:23 43.03522 29.50919 38193 ft 410 kts 305°
2026-04-16 09:23 43.06971 29.44697 38195 ft 411 kts 305°
2026-04-16 09:24 43.10423 29.38460 38195 ft 411 kts 305°
2026-04-16 09:24 43.13867 29.32221 38193 ft 411 kts 305°
2026-04-16 09:25 43.16730 29.27025 38197 ft 411 kts 305°
2026-04-16 09:25 43.20173 29.20764 38200 ft 411 kts 305°
2026-04-16 09:26 43.23617 29.14489 38203 ft 412 kts 305°
2026-04-16 09:26 43.27056 29.08209 38204 ft 412 kts 305°
2026-04-16 09:27 43.30496 29.01913 38207 ft 412 kts 305°
2026-04-16 09:27 43.33931 28.95613 38205 ft 412 kts 305°
2026-04-16 09:28 43.37363 28.89305 38208 ft 412 kts 305°
2026-04-16 09:28 43.40796 28.82983 38203 ft 412 kts 305°
2026-04-16 09:29 43.44221 28.76660 38202 ft 412 kts 305°
2026-04-16 09:29 43.47622 28.70370 38202 ft 412 kts 305°
2026-04-16 09:30 43.51039 28.64036 38196 ft 412 kts 305°
2026-04-16 09:30 43.54456 28.57690 38198 ft 412 kts 305°
2026-04-16 09:31 43.57868 28.51336 38191 ft 412 kts 305°
2026-04-16 09:31 43.61277 28.44977 38186 ft 412 kts 305°
2026-04-16 09:32 43.64684 28.38606 38186 ft 412 kts 305°
2026-04-16 09:32 43.68089 28.32226 38186 ft 413 kts 305°
2026-04-16 09:33 43.71492 28.25834 38186 ft 413 kts 305°
2026-04-16 09:33 43.74890 28.19439 38190 ft 413 kts 305°
2026-04-16 09:34 43.78289 28.13029 38192 ft 413 kts 305°
2026-04-16 09:34 43.81684 28.06610 38194 ft 413 kts 305°
2026-04-16 09:35 43.85081 28.00177 38194 ft 414 kts 305°
2026-04-16 09:35 43.88474 27.93734 38195 ft 414 kts 305°
2026-04-16 09:36 43.91862 27.87287 38193 ft 414 kts 305°
2026-04-16 09:36 43.95251 27.80824 38194 ft 414 kts 305°
2026-04-16 09:37 43.98639 27.74350 38195 ft 414 kts 305°
2026-04-16 09:37 44.02023 27.67868 38192 ft 415 kts 305°
2026-04-16 09:38 44.05407 27.61371 38192 ft 415 kts 305°
2026-04-16 09:38 44.08757 27.54925 38190 ft 415 kts 305°
2026-04-16 09:39 44.12163 27.48359 38191 ft 415 kts 305°
2026-04-16 09:39 44.15540 27.41831 38189 ft 415 kts 305°
2026-04-16 09:40 44.18910 27.35304 38192 ft 415 kts 305°
2026-04-16 09:40 44.22257 27.28806 38188 ft 415 kts 306°
2026-04-16 09:41 44.25621 27.22260 38190 ft 415 kts 306°
2026-04-16 09:41 44.28989 27.15693 38192 ft 416 kts 306°
2026-04-16 09:42 44.32352 27.09120 38195 ft 416 kts 306°
2026-04-16 09:42 44.35710 27.02542 38194 ft 416 kts 306°
2026-04-16 09:43 44.39067 26.95950 38193 ft 416 kts 306°
2026-04-16 09:43 44.42417 26.89357 38194 ft 416 kts 306°
2026-04-16 09:44 44.45772 26.82741 38194 ft 416 kts 306°
2026-04-16 09:44 44.49117 26.76129 38199 ft 417 kts 306°
2026-04-16 09:45 44.52464 26.69498 38197 ft 417 kts 306°
2026-04-16 09:45 44.55812 26.62857 38199 ft 417 kts 306°
2026-04-16 09:46 44.59023 26.56082 38194 ft 417 kts 301°
2026-04-16 09:46 44.61622 26.48796 38202 ft 418 kts 296°
2026-04-16 09:47 44.64085 26.41387 38203 ft 418 kts 296°
2026-04-16 09:47 44.66548 26.33991 38203 ft 419 kts 296°
2026-04-16 09:48 44.68984 26.26621 38187 ft 419 kts 296°
2026-04-16 09:48 44.71431 26.19186 38185 ft 419 kts 296°
2026-04-16 09:49 44.73874 26.11740 38185 ft 419 kts 296°
2026-04-16 09:49 44.76316 26.04278 38182 ft 420 kts 296°
2026-04-16 09:50 44.78755 25.96803 38181 ft 420 kts 296°
2026-04-16 09:50 44.81192 25.89314 38179 ft 421 kts 296°
2026-04-16 09:51 44.83626 25.81811 38184 ft 422 kts 296°
2026-04-16 09:51 44.86062 25.74283 38178 ft 422 kts 296°
2026-04-16 09:52 44.88498 25.66732 38173 ft 423 kts 295°
2026-04-16 09:52 44.90930 25.59171 38174 ft 424 kts 295°
2026-04-16 09:53 44.93363 25.51586 38166 ft 425 kts 295°
2026-04-16 09:53 44.95799 25.43970 38168 ft 426 kts 295°
2026-04-16 09:54 44.98234 25.36334 38166 ft 427 kts 295°
2026-04-16 09:54 45.00718 25.28707 38164 ft 427 kts 297°
2026-04-16 09:55 45.03358 25.21173 38162 ft 428 kts 297°
2026-04-16 09:55 45.05994 25.13621 38157 ft 429 kts 297°
2026-04-16 09:56 45.08613 25.06032 38156 ft 430 kts 297°
2026-04-16 09:56 45.11226 24.98420 38153 ft 430 kts 297°
2026-04-16 09:57 45.13838 24.90783 38151 ft 431 kts 297°
2026-04-16 09:57 45.16446 24.83142 38152 ft 431 kts 297°
2026-04-16 09:58 45.19054 24.75478 38156 ft 431 kts 297°
2026-04-16 09:58 45.21657 24.67806 38150 ft 432 kts 297°
2026-04-16 09:59 45.24239 24.60176 38151 ft 432 kts 297°
2026-04-16 09:59 45.26836 24.52478 38154 ft 432 kts 297°
2026-04-16 10:00 45.29428 24.44770 38148 ft 433 kts 298°
2026-04-16 10:00 45.32016 24.37055 38138 ft 433 kts 298°
2026-04-16 10:01 45.35892 24.25454 38145 ft 433 kts 298°
2026-04-16 10:01 45.38470 24.17714 38146 ft 433 kts 298°
2026-04-16 10:02 45.41050 24.09942 38147 ft 434 kts 298°
2026-04-16 10:02 45.43621 24.02175 38149 ft 434 kts 298°
2026-04-16 10:03 45.46188 23.94395 38143 ft 434 kts 297°
2026-04-16 10:03 45.48746 23.86617 38137 ft 432 kts 297°
2026-04-16 10:04 45.51291 23.78860 38129 ft 432 kts 297°
2026-04-16 10:04 45.53833 23.71089 38136 ft 432 kts 297°
2026-04-16 10:05 45.56373 23.63304 38142 ft 434 kts 297°
2026-04-16 10:05 45.58910 23.55499 38140 ft 433 kts 297°
2026-04-16 10:06 45.61442 23.47686 38137 ft 433 kts 297°
2026-04-16 10:06 45.63970 23.39863 38139 ft 434 kts 297°
2026-04-16 10:07 45.66475 23.32088 38133 ft 433 kts 297°
2026-04-16 10:07 45.68989 23.24263 38128 ft 433 kts 297°
2026-04-16 10:08 45.71496 23.16435 38128 ft 433 kts 297°
2026-04-16 10:08 45.73997 23.08602 38126 ft 432 kts 297°
2026-04-16 10:09 45.76492 23.00766 38123 ft 432 kts 297°
2026-04-16 10:09 45.78980 22.92923 38117 ft 433 kts 297°
2026-04-16 10:10 45.81467 22.85067 38121 ft 433 kts 297°
2026-04-16 10:10 45.83946 22.77205 38117 ft 433 kts 297°
2026-04-16 10:11 45.86424 22.69326 38121 ft 434 kts 296°
2026-04-16 10:11 45.88482 22.62762 38126 ft 434 kts 296°
2026-04-16 10:12 45.90958 22.54846 38136 ft 435 kts 296°
2026-04-16 10:12 45.93434 22.46907 38142 ft 436 kts 296°
2026-04-16 10:13 45.95994 22.39019 38146 ft 435 kts 301°
2026-04-16 10:13 45.98953 22.31435 38155 ft 435 kts 301°
2026-04-16 10:14 46.01926 22.23839 38139 ft 435 kts 301°
2026-04-16 10:14 46.04876 22.16262 38145 ft 434 kts 301°
2026-04-16 10:15 46.07821 22.08665 38148 ft 434 kts 301°
2026-04-16 10:15 46.10756 22.01061 38148 ft 434 kts 301°
2026-04-16 10:16 46.13682 21.93455 38149 ft 434 kts 301°
2026-04-16 10:16 46.16603 21.85841 38149 ft 434 kts 301°
2026-04-16 10:17 46.19507 21.78249 38154 ft 434 kts 301°
2026-04-16 10:17 46.22421 21.70611 38162 ft 434 kts 301°
2026-04-16 10:18 46.25329 21.62969 38156 ft 434 kts 300°
2026-04-16 10:18 46.28220 21.55348 38156 ft 432 kts 300°
2026-04-16 10:19 46.31108 21.47714 38158 ft 432 kts 300°
2026-04-16 10:19 46.33989 21.40076 38158 ft 432 kts 300°
2026-04-16 10:20 46.36863 21.32437 38160 ft 432 kts 300°
2026-04-16 10:20 46.39730 21.24795 38154 ft 432 kts 300°
2026-04-16 10:21 46.42589 21.17153 38158 ft 431 kts 300°
2026-04-16 10:21 46.45443 21.09500 38157 ft 431 kts 300°
2026-04-16 10:22 46.48290 21.01846 38160 ft 431 kts 300°
2026-04-16 10:22 46.51132 20.94182 38161 ft 431 kts 300°
2026-04-16 10:23 46.53972 20.86505 38159 ft 431 kts 299°
2026-04-16 10:23 46.56805 20.78824 38164 ft 431 kts 299°
2026-04-16 10:24 46.59632 20.71137 38160 ft 431 kts 299°
2026-04-16 10:24 46.62377 20.63651 38167 ft 431 kts 299°
2026-04-16 10:25 46.65194 20.55946 38171 ft 431 kts 299°
2026-04-16 10:25 46.68008 20.48229 38166 ft 431 kts 299°
2026-04-16 10:26 46.70796 20.40562 38170 ft 431 kts 298°
2026-04-16 10:26 46.73597 20.32836 38169 ft 431 kts 298°
2026-04-16 10:27 46.76392 20.25102 38176 ft 431 kts 298°
2026-04-16 10:27 46.79184 20.17355 38176 ft 431 kts 298°
2026-04-16 10:28 46.81968 20.09610 38182 ft 431 kts 298°
2026-04-16 10:28 46.84746 20.01855 38185 ft 431 kts 298°
2026-04-16 10:29 46.87519 19.94093 38183 ft 431 kts 298°
2026-04-16 10:29 46.90287 19.86323 38187 ft 431 kts 298°
2026-04-16 10:30 46.93054 19.78533 38188 ft 431 kts 298°
2026-04-16 10:30 46.95813 19.70742 38188 ft 431 kts 298°
2026-04-16 10:31 46.98567 19.62942 38187 ft 431 kts 297°
2026-04-16 10:31 47.01298 19.55185 38182 ft 431 kts 297°
2026-04-16 10:32 47.04037 19.47383 38172 ft 430 kts 297°
2026-04-16 10:32 47.06769 19.39576 38172 ft 430 kts 297°
2026-04-16 10:33 47.09495 19.31765 38171 ft 430 kts 297°
2026-04-16 10:33 47.12219 19.23933 38170 ft 430 kts 297°
2026-04-16 10:34 47.14937 19.16099 38175 ft 430 kts 297°
2026-04-16 10:34 47.17647 19.08261 38169 ft 430 kts 297°
2026-04-16 10:35 47.20354 19.00411 38169 ft 430 kts 297°
2026-04-16 10:35 47.23055 18.92553 38172 ft 431 kts 297°
2026-04-16 10:36 47.25753 18.84681 38177 ft 431 kts 297°
2026-04-16 10:36 47.28453 18.76781 38184 ft 432 kts 297°
2026-04-16 10:37 47.31147 18.68872 38190 ft 432 kts 296°
2026-04-16 10:37 47.33838 18.60949 38191 ft 433 kts 296°
2026-04-16 10:38 47.36528 18.53004 38200 ft 433 kts 296°
2026-04-16 10:38 47.39208 18.45064 38204 ft 433 kts 296°
2026-04-16 10:39 47.41891 18.37090 38201 ft 433 kts 296°
2026-04-16 10:39 47.44565 18.29120 38203 ft 433 kts 296°
2026-04-16 10:40 47.47216 18.21194 38203 ft 433 kts 296°
2026-04-16 10:40 47.49877 18.13214 38212 ft 433 kts 296°
2026-04-16 10:41 47.52534 18.05218 38207 ft 433 kts 296°
2026-04-16 10:41 47.55184 17.97222 38211 ft 432 kts 296°
2026-04-16 10:42 47.57824 17.89229 38208 ft 432 kts 296°
2026-04-16 10:42 47.60458 17.81233 38208 ft 432 kts 296°
2026-04-16 10:43 47.63086 17.73227 38203 ft 432 kts 296°
2026-04-16 10:43 47.65707 17.65217 38204 ft 432 kts 296°
2026-04-16 10:44 47.68324 17.57195 38203 ft 432 kts 296°
2026-04-16 10:44 47.70934 17.49169 38201 ft 432 kts 295°
2026-04-16 10:45 47.73540 17.41129 38198 ft 432 kts 295°
2026-04-16 10:45 47.76140 17.33085 38208 ft 432 kts 295°
2026-04-16 10:46 47.78741 17.25025 38204 ft 433 kts 295°
2026-04-16 10:46 47.81340 17.16951 38213 ft 433 kts 295°
2026-04-16 10:47 47.83852 17.08811 38213 ft 433 kts 292°
2026-04-16 10:47 47.86231 17.00571 38216 ft 433 kts 294°
2026-04-16 10:48 47.88644 16.92409 38224 ft 434 kts 294°
2026-04-16 10:48 47.91056 16.84163 38228 ft 434 kts 293°
2026-04-16 10:49 47.93451 16.75907 38230 ft 434 kts 293°
2026-04-16 10:49 47.95844 16.67621 38237 ft 434 kts 293°
2026-04-16 10:50 47.98232 16.59328 38237 ft 435 kts 293°
2026-04-16 10:50 48.00609 16.51044 38241 ft 435 kts 293°
2026-04-16 10:51 48.02990 16.42717 38236 ft 435 kts 293°
2026-04-16 10:51 48.05365 16.34382 38238 ft 436 kts 293°
2026-04-16 10:52 48.07731 16.26050 38243 ft 436 kts 293°
2026-04-16 10:52 48.10097 16.17687 38242 ft 436 kts 293°
2026-04-16 10:53 48.12456 16.09321 38244 ft 437 kts 293°
2026-04-16 10:53 48.14810 16.00945 38250 ft 437 kts 293°
2026-04-16 10:54 48.17163 15.92545 38249 ft 437 kts 293°
2026-04-16 10:54 48.19494 15.84191 38258 ft 437 kts 293°
2026-04-16 10:55 48.21832 15.75783 38257 ft 437 kts 293°
2026-04-16 10:55 48.24166 15.67358 38260 ft 437 kts 293°
2026-04-16 10:56 48.26496 15.58920 38260 ft 437 kts 293°
2026-04-16 10:56 48.28818 15.50479 38261 ft 437 kts 293°
2026-04-16 10:57 48.31134 15.42031 38262 ft 437 kts 293°
2026-04-16 10:57 48.33446 15.33569 38256 ft 437 kts 293°
2026-04-16 10:58 48.35745 15.25119 38250 ft 437 kts 293°
2026-04-16 10:58 48.38038 15.16667 38260 ft 436 kts 293°
2026-04-16 10:59 48.40325 15.08202 38257 ft 437 kts 293°
2026-04-16 10:59 48.42221 15.01162 38254 ft 436 kts 293°
2026-04-16 11:00 48.44496 14.92690 38253 ft 436 kts 293°
2026-04-16 11:00 48.46763 14.84212 38258 ft 436 kts 293°
2026-04-16 11:01 48.49025 14.75724 38253 ft 436 kts 293°
2026-04-16 11:01 48.51280 14.67230 38249 ft 436 kts 293°
2026-04-16 11:02 48.53530 14.58727 38255 ft 437 kts 294°
2026-04-16 11:02 48.55776 14.50202 38257 ft 437 kts 294°
2026-04-16 11:03 48.58014 14.41679 38250 ft 437 kts 294°
2026-04-16 11:04 48.61366 14.28854 38257 ft 438 kts 294°
2026-04-16 11:04 48.63582 14.20340 38263 ft 438 kts 294°
2026-04-16 11:05 48.65805 14.11774 38207 ft 437 kts 290°
2026-04-16 11:05 48.68015 14.03207 38263 ft 436 kts 294°
2026-04-16 11:06 48.70221 13.94623 38264 ft 437 kts 294°
2026-04-16 11:06 48.72414 13.86062 38260 ft 436 kts 294°
2026-04-16 11:07 48.74605 13.77497 38253 ft 436 kts 294°
2026-04-16 11:07 48.76732 13.68968 38257 ft 436 kts 291°
2026-04-16 11:08 48.78781 13.60311 38260 ft 436 kts 293°
2026-04-16 11:08 48.80871 13.51695 38260 ft 436 kts 293°
2026-04-16 11:09 48.82942 13.43041 38261 ft 436 kts 293°
2026-04-16 11:09 48.84996 13.34385 38258 ft 436 kts 293°
2026-04-16 11:10 48.87045 13.25712 38258 ft 436 kts 292°
2026-04-16 11:10 48.89089 13.17026 38261 ft 437 kts 292°
2026-04-16 11:11 48.91126 13.08333 38263 ft 437 kts 292°
2026-04-16 11:11 48.93157 12.99631 38260 ft 436 kts 292°
2026-04-16 11:12 48.95180 12.90934 38259 ft 436 kts 292°
2026-04-16 11:12 48.97194 12.82230 38255 ft 436 kts 292°
2026-04-16 11:13 48.99204 12.73516 38256 ft 436 kts 292°
2026-04-16 11:13 49.01204 12.64805 38259 ft 435 kts 292°
2026-04-16 11:14 49.03194 12.56102 38259 ft 435 kts 292°
2026-04-16 11:14 49.05175 12.47406 38259 ft 434 kts 292°
2026-04-16 11:15 49.07136 12.38762 38257 ft 434 kts 292°
2026-04-16 11:15 49.09099 12.30067 38254 ft 433 kts 292°
2026-04-16 11:16 49.11054 12.21378 38247 ft 432 kts 292°
2026-04-16 11:16 49.12999 12.12698 38246 ft 432 kts 292°
2026-04-16 11:17 49.14935 12.04021 38243 ft 431 kts 292°
2026-04-16 11:17 49.16858 11.95363 38240 ft 430 kts 292°
2026-04-16 11:18 49.18773 11.86709 38239 ft 429 kts 292°
2026-04-16 11:18 49.20666 11.78117 38236 ft 429 kts 292°
2026-04-16 11:19 49.22560 11.69487 38239 ft 428 kts 292°
2026-04-16 11:19 49.24446 11.60854 38237 ft 427 kts 292°
2026-04-16 11:20 49.26322 11.52235 38239 ft 426 kts 292°
2026-04-16 11:20 49.28189 11.43617 38237 ft 426 kts 292°
2026-04-16 11:21 49.30048 11.35006 38238 ft 426 kts 292°
2026-04-16 11:21 49.31898 11.26395 38241 ft 425 kts 292°
2026-04-16 11:22 49.33739 11.17793 38244 ft 424 kts 292°
2026-04-16 11:22 49.35573 11.09187 38245 ft 424 kts 292°
2026-04-16 11:23 49.37397 11.00597 38246 ft 423 kts 292°
2026-04-16 11:23 49.39410 10.92137 38249 ft 420 kts 299°
2026-04-16 11:24 49.42012 10.84147 38254 ft 418 kts 300°
2026-04-16 11:24 49.44610 10.76156 38262 ft 418 kts 300°
2026-04-16 11:25 49.47193 10.68172 38264 ft 417 kts 300°
2026-04-16 11:25 49.49769 10.60178 38245 ft 416 kts 299°
2026-04-16 11:26 49.52332 10.52198 38242 ft 416 kts 299°
2026-04-16 11:26 49.54869 10.44276 38242 ft 415 kts 299°
2026-04-16 11:27 49.57414 10.36304 38235 ft 414 kts 299°
2026-04-16 11:27 49.59946 10.28348 38237 ft 413 kts 299°
2026-04-16 11:28 49.62471 10.20387 38241 ft 413 kts 298°
2026-04-16 11:28 49.64988 10.12427 38240 ft 412 kts 298°
2026-04-16 11:29 49.67496 10.04469 38244 ft 412 kts 298°
2026-04-16 11:29 49.69999 9.96500 38240 ft 412 kts 298°
2026-04-16 11:30 49.72490 9.88545 38243 ft 411 kts 298°
2026-04-16 11:30 49.74978 9.80575 38240 ft 411 kts 298°
2026-04-16 11:31 49.77457 9.72607 38239 ft 411 kts 298°
2026-04-16 11:31 49.79929 9.64634 38241 ft 411 kts 298°
2026-04-16 11:32 49.82396 9.56655 38240 ft 411 kts 297°
2026-04-16 11:32 49.84858 9.48662 38235 ft 411 kts 297°
2026-04-16 11:33 49.87294 9.40730 38238 ft 411 kts 297°
2026-04-16 11:33 49.89745 9.32724 38240 ft 411 kts 297°
2026-04-16 11:34 49.92189 9.24716 38242 ft 411 kts 297°
2026-04-16 11:34 49.94629 9.16694 38242 ft 411 kts 297°
2026-04-16 11:34 49.95849 9.12672 38370 ft 411 kts 296°
2026-04-16 11:35 49.97071 9.08679 38223 ft 407 kts 294°
2026-04-16 11:35 49.99464 9.00772 38234 ft 405 kts 294°
2026-04-16 11:36 50.01852 8.92837 38223 ft 406 kts 294°
2026-04-16 11:36 50.04249 8.84852 38218 ft 406 kts 294°
2026-04-16 11:37 50.06457 8.76787 38219 ft 405 kts 289°
2026-04-16 11:37 50.08389 8.68544 38214 ft 405 kts 289°
2026-04-16 11:38 50.10343 8.60325 38213 ft 405 kts 289°
2026-04-16 11:38 50.12288 8.52076 38212 ft 405 kts 289°
2026-04-16 11:39 50.14219 8.43830 38233 ft 405 kts 289°
2026-04-16 11:39 50.16145 8.35571 38229 ft 405 kts 289°
2026-04-16 11:40 50.18064 8.27314 38232 ft 405 kts 289°
2026-04-16 11:40 50.19978 8.19048 38231 ft 405 kts 289°
2026-04-16 11:41 50.21885 8.10777 38232 ft 405 kts 289°
2026-04-16 11:41 50.23788 8.02496 38239 ft 405 kts 289°
2026-04-16 11:42 50.25684 7.94210 38231 ft 405 kts 289°
2026-04-16 11:42 50.27560 7.85981 38233 ft 405 kts 289°
2026-04-16 11:43 50.29141 7.79025 38231 ft 405 kts 289°
2026-04-16 11:44 50.30987 7.70866 38237 ft 405 kts 289°
2026-04-16 11:44 50.32861 7.62557 38235 ft 405 kts 288°
2026-04-16 11:45 50.34730 7.54234 38236 ft 405 kts 288°
2026-04-16 11:45 50.36593 7.45909 38231 ft 405 kts 288°
2026-04-16 11:46 50.38449 7.37582 38228 ft 405 kts 288°
2026-04-16 11:46 50.40298 7.29251 38222 ft 405 kts 288°
2026-04-16 11:47 50.42142 7.20909 38223 ft 404 kts 288°
2026-04-16 11:47 50.43665 7.13993 38219 ft 404 kts 288°
2026-04-16 11:48 50.45492 7.05669 38218 ft 404 kts 288°
2026-04-16 11:48 50.47312 6.97339 38219 ft 403 kts 288°
2026-04-16 11:49 50.49126 6.89009 38219 ft 403 kts 288°
2026-04-16 11:49 50.50933 6.80687 38222 ft 403 kts 288°
2026-04-16 11:50 50.52769 6.72385 38226 ft 402 kts 289°
2026-04-16 11:50 50.54614 6.64068 38229 ft 402 kts 289°
2026-04-16 11:51 50.56445 6.55759 38223 ft 402 kts 289°
2026-04-16 11:51 50.58264 6.47462 38220 ft 401 kts 288°
2026-04-16 11:52 50.60077 6.39163 38220 ft 401 kts 288°
2026-04-16 11:52 50.61883 6.30857 38215 ft 400 kts 288°
2026-04-16 11:53 50.63355 6.22416 38208 ft 400 kts 283°
2026-04-16 11:53 50.64645 6.13897 38214 ft 400 kts 284°
2026-04-16 11:54 50.65938 6.05381 38223 ft 400 kts 283°
2026-04-16 11:54 50.67219 5.96861 38227 ft 399 kts 283°
2026-04-16 11:55 50.68491 5.88347 38232 ft 399 kts 283°
2026-04-16 11:55 50.69756 5.79828 38234 ft 399 kts 283°
2026-04-16 11:56 50.71005 5.71373 38241 ft 398 kts 283°
2026-04-16 11:56 50.72253 5.62873 38236 ft 398 kts 283°
2026-04-16 11:57 50.73497 5.54365 38235 ft 397 kts 283°
2026-04-16 11:57 50.74733 5.45858 38236 ft 397 kts 283°
2026-04-16 11:58 50.75962 5.37356 38236 ft 397 kts 283°
2026-04-16 11:58 50.77182 5.28867 38236 ft 396 kts 283°
2026-04-16 11:59 50.78394 5.20380 38230 ft 396 kts 283°
2026-04-16 11:59 50.79600 5.11893 38225 ft 395 kts 283°
2026-04-16 12:00 50.81141 5.03560 38226 ft 395 kts 291°
2026-04-16 12:00 50.83461 4.95687 38221 ft 395 kts 295°
2026-04-16 12:01 50.85908 4.87967 38222 ft 395 kts 295°
2026-04-16 12:01 50.88360 4.80188 38229 ft 395 kts 295°
2026-04-16 12:02 50.92033 4.68508 38235 ft 394 kts 295°
2026-04-16 12:02 50.94473 4.60726 38235 ft 394 kts 295°
2026-04-16 12:03 50.96907 4.52933 38237 ft 394 kts 295°
2026-04-16 12:03 50.99338 4.45128 38237 ft 394 kts 295°
2026-04-16 12:04 51.01760 4.37328 38234 ft 394 kts 295°
2026-04-16 12:04 51.04173 4.29529 38229 ft 394 kts 295°
2026-04-16 12:05 51.06580 4.21726 38229 ft 393 kts 295°
2026-04-16 12:05 51.08982 4.13914 38227 ft 393 kts 295°
2026-04-16 12:06 51.11377 4.06098 38222 ft 393 kts 295°
2026-04-16 12:06 51.13768 3.98271 38218 ft 393 kts 295°
2026-04-16 12:07 51.16136 3.90496 38209 ft 393 kts 295°
2026-04-16 12:07 51.18515 3.82658 38204 ft 393 kts 294°
2026-04-16 12:08 51.20887 3.74820 38210 ft 393 kts 294°